AirNav   Duncan Aviation - Near you to keep you flying
 
 964 users online  

07S Beaumont Hotel Airport
Beaumont, Kansas, USA

GOING TO BEAUMONT?


FAA INFORMATION EFFECTIVE 09 SEPTEMBER 2021

Location

FAA Identifier: 07S
Lat/Long: 37-39-33.4950N 096-31-39.6900W
37-39.558250N 096-31.661500W
37.6593042,-96.5276917
(estimated)
Elevation: 1617 ft. / 493 m (estimated)
Variation: 06E (1985)
Time zone: UTC -5 (UTC -6 during Standard Time)
Zip code: 67012

Airport Operations

Airport use: Open to the public
Activation date: 10/1960
Control tower: no
ARTCC: KANSAS CITY CENTER
FSS: WICHITA FLIGHT SERVICE STATION
NOTAMs facility: ICT (NOTAM-D service available)
Attendance: UNATNDD
Wind indicator: yes
Segmented circle: no

Airport Communications

CTAF: 122.9
WX AWOS-3P at EQA (15 nm NW): 120.875 (316-322-8095)
WX AWOS-3PT at 13K (16 nm NE): 120.975 (620-583-2760)

Airport Services

Parking: tiedowns
Airframe service: NONE
Powerplant service: NONE
Bottled oxygen: NONE
Bulk oxygen: NONE

Runway Information

Runway 18/36

Dimensions: 2400 x 80 ft. / 732 x 24 m
Surface: turf, in good condition
Runway edge markings: RY 18/36 MKD WITH YELLOW CONES.
RUNWAY 18  RUNWAY 36
Latitude: 37-39.755500N37-39.361000N
Longitude: 096-31.641833W096-31.681167W
Elevation: 1614.0 ft.1587.0 ft.
Traffic pattern: leftright
Runway end identifier lights: nono
Obstructions: 20 ft. road, 450 ft. from runway, 22:1 slope to clear33 ft. tree, 465 ft. from runway, 95 ft. left of centerline, 14:1 slope to clear

Airport Ownership and Management from official FAA records

Ownership: Privately-owned
Owner: SJC IV LLC
730 NEW HAMPSHIRE, SUITE 206
LAWRENCE, KS 66044-2776
Phone 620-843-2422
Manager: JEANNE SQUIER
BEAUMONT HOTEL, 11651 SE MAIN
BEAUMONT, KS 67012
Phone 620-843-2422

Airport Operational Statistics

Aircraft operations: avg 38/week *
100% transient general aviation
* for 12-month period ending 25 September 2018

Additional Remarks

RY ENDS LINE OF SITE OBSTRUCTED BY TERRAIN.
WIND TURBINE FARM AND 420 FT TWR 3 MILES SSW.
4 FT BARB WIRE FENCE 260 FT FM APCH END RY18.
OCCASIONAL LARGE ROUND HAY BALES BOTH SIDES OF RUNWAY.
20 FT X 1200 FT PAVED TWY TO ACFT PRKG AT HOTEL/RESTAURANT
FOR CD CTC KANSAS CITY ARTCC AT 913-254-8508.
AFT HRS OR EMERG CALL 316-377-3085.
365 FT TWR 0.7 NM WSW OF ARPT.

Instrument Procedures

There are no published instrument procedures at 07S.

Some nearby airports with instrument procedures:

KEQA - El Dorado/Capt Jack Thomas Memorial Airport (15 nm NW)
13K - Lt. William M. Milliken Airport (16 nm NE)
3AU - Augusta Municipal Airport (26 nm W)
1K1 - Lloyd Stearman Field Airport (29 nm W)
KBEC - Beech Factory Airport (33 nm W)
 
Loc | Ops | Rwys | IFR | FBO | Links
Com | Nav | Svcs | Stats | Notes
Area around 07S (Beaumont Hotel Airport)
 
Road maps at: MapQuest Bing Google
 
Aerial photo
WARNING: Photo may not be current or correct
Aerial photo of 07S (Beaumont Hotel Airport)
Photo by Scott Watson
Photo taken 12-Jul-2015
looking south at runway 18.

Do you have a better or more recent aerial photo of Beaumont Hotel Airport that you would like to share? If so, please send us your photo.

 
Sectional chart

 
Airport distance calculator
Flying to Beaumont Hotel Airport? Find the distance to fly.

From to 07S

Sunrise and sunset
Times for 25-Sep-2021
 Local
(UTC-5)
 Zulu
(UTC)
Morning civil twilight06:5111:51
Sunrise07:1712:17
Sunset19:1800:18
Evening civil twilight19:4400:44

Current date and time
Zulu (UTC)  25-Sep-2021 22:25:44
Local (UTC-5)  25-Sep-2021 17:25:44
 
METAR
KEQA 
15nm NW 
252155Z AUTO 18010KT 10SM CLR 27/05 A3006 RMK AO2
K13K 
16nm NE 
252155Z AUTO 16007KT 10SM CLR 25/09 A3008 RMK AO2 T02530090
K3AU 
26nm W 
252150Z AUTO 14007G15KT 10SM CLR 27/00 A3006 RMK AO2
K1K1 
29nm W 
252155Z AUTO 17008G17KT 10SM CLR 26/05 A3006 RMK AO2 T02630054
TAF
KICT 
43nm W 
251734Z 2518/2618 16009KT P6SM FEW200 FM260700 16011KT P6SM SKC WS020/20040KT FM261400 20015G25KT P6SM SKC FM261700 20020G30KT P6SM SKC
NOTAMs
Click for the latest NOTAMs
NOTAMs are issued by the DoD/FAA and will open in a separate window not controlled by AirNav.

 

 
 

Where to Stay: Hotels, Motels, Resorts, B&Bs, Campgrounds

 The hotels featured here are reported to be very convenient to the Beaumont Hotel Airport. If your hotel/inn/B&B/resort is near the Beaumont Hotel Airport, provides convenient transportation, or is otherwise attractive to pilots, flight crews, and airport users, consider listing it here.
  
 Business Name 
 
 Contact 
 
 Services / Description 
 
Distance
 
Comments
  
Beaumont Hotel 620-843-2422
[web site]
[email]
[Reservations]
Aircraft parking (ramp or tiedown), Public telephone, Computerized weather, Internet access, Restrooms, Restaurant, Lodging, Attraction

More info about Beaumont Hotel
on airport  
   1 read write
Feature A Hotel
 

Would you like to see your business listed on this page?

 If your business provides an interesting product or service to pilots, flight crews, aircraft, or users of the Beaumont Hotel Airport, you should consider listing it here.  To start the listing process, click on the button below
 
Add a business
 

Other Pages about Beaumont Hotel Airport

Update a link
 
Copyright © AirNav, LLC. All rights reserved. Privacy Policy  Contact